Weather History for KCFS - December, 2012

Change the Weather History Date:

Monday, December 24, 2012

  Actual Average (KMBS) Record (KMBS)
Temperature  
Mean Temperature 24 °F 25 °F  
Max Temperature 30 °F 31 °F 46 °F (1996)
Min Temperature 20 °F 19 °F -2 °F (2000)
Degree Days  
Heating Degree Days 40    
Month to date heating degree days  
Since 1 July heating degree days  
Cooling Degree Days 0    
Month to date cooling degree days  
Year to date cooling degree days  
Moisture  
Dew Point 21 °F    
Average Humidity 78    
Maximum Humidity 92    
Minimum Humidity 67    
Precipitation  
Precipitation 0.00 in 0.05 in 1.04 in (2014)
Month to date precipitation 1.46  
Year to date precipitation 31.14  
Snow  
Snow 0.00 in - - ()
Month to date snowfall  
Since 1 July snowfall  
Snow Depth -    
Sea Level Pressure  
Sea Level Pressure 29.96 in    
Wind  
Wind Speed 3 mph (NNE)    
Max Wind Speed 10 mph    
Max Gust Speed -    
Visibility 10 miles    
Events Snow    
T = Trace of Precipitation, MM = Missing Value Source: NWS Daily Summary

Daily Weather History Graph

Daily Weather History Graph

Search for Another Location

Airport or City:

Trip Planner

Search our weather history database for the weather conditions in past years. The results will help you decide how hot, cold, wet, or windy it might be!

Date:

Astronomy

Dec. 24, 2012 Rise Set
Actual Time 8:04 AM EST 5:02 PM EST
Civil Twilight 7:32 AM EST 5:35 PM EST
Nautical Twilight 6:56 AM EST 6:11 PM EST
Astronomical Twilight 6:21 AM EST 6:46 PM EST
Moon 2:31 PM EST (12/24) 4:40 AM EST (12/24)
Length of Visible Light 10h 02m
Length of Day
8h 57m
Waxing Gibbous, 88% of the Moon is Illuminated
Dec 24
Waxing Gibbous
Dec 28
Full
Jan 4
Last Quarter
Jan 11
New
Jan 18
First Quarter

Hourly Weather History & Observations

Time (EST) Temp. Windchill Dew Point Humidity Pressure Visibility Wind Dir Wind Speed Gust Speed Precip Events Conditions
12:14 AM 27.3 °F 22.0 °F 18.1 °F 68% 30.01 in 10.0 mi North 4.6 mph - N/A   Overcast
12:35 AM 26.6 °F - 18.1 °F 70% 30.01 in 10.0 mi Calm Calm - N/A   Overcast
12:54 AM 26.6 °F - 18.0 °F 70% 30.00 in 10.0 mi Calm Calm - N/A   Overcast
1:14 AM 26.4 °F 22.4 °F 16.7 °F 67% 30.00 in 10.0 mi ENE 3.5 mph - N/A   Overcast
1:35 AM 26.2 °F 20.7 °F 16.7 °F 67% 29.99 in 10.0 mi North 4.6 mph - N/A   Overcast
1:54 AM 25.7 °F 21.5 °F 17.4 °F 71% 30.00 in 10.0 mi NNE 3.5 mph - N/A   Overcast
2:14 AM 25.7 °F - 17.6 °F 71% 30.01 in 10.0 mi Calm Calm - N/A   Overcast
2:35 AM 25.7 °F 21.5 °F 16.9 °F 69% 30.02 in 10.0 mi NNE 3.5 mph - N/A   Overcast
2:54 AM 25.7 °F - 16.9 °F 69% 30.03 in 10.0 mi Calm Calm - N/A   Overcast
3:15 AM 25.5 °F - 17.2 °F 71% 30.02 in 10.0 mi Calm Calm - N/A   Overcast
3:35 AM 25.2 °F - 16.5 °F 70% 30.02 in 10.0 mi Calm Calm - N/A   Overcast
3:54 AM 24.8 °F - 16.7 °F 71% 30.02 in 10.0 mi Calm Calm - N/A   Overcast
4:15 AM 24.4 °F 20.1 °F 15.8 °F 70% 30.00 in 10.0 mi ENE 3.5 mph - N/A   Mostly Cloudy
4:35 AM 23.4 °F 18.9 °F 16.2 °F 74% 29.98 in 10.0 mi ENE 3.5 mph - N/A   Scattered Clouds
4:54 AM 23.0 °F - 15.8 °F 74% 29.98 in 10.0 mi Calm Calm - N/A   Clear
5:15 AM 21.0 °F - 15.4 °F 79% 29.99 in 10.0 mi Calm Calm - N/A   Scattered Clouds
5:34 AM 20.5 °F - 15.8 °F 82% 29.98 in 10.0 mi Calm Calm - N/A   Mostly Cloudy
5:55 AM 20.8 °F - 16.9 °F 85% 29.98 in 10.0 mi Calm Calm - N/A   Scattered Clouds
6:15 AM 21.0 °F - 17.1 °F 85% 29.98 in 10.0 mi Calm Calm - N/A   Scattered Clouds
6:34 AM 21.6 °F - 17.4 °F 84% 29.99 in 10.0 mi Calm Calm - N/A   Overcast
6:55 AM 21.9 °F - 18.3 °F 86% 29.99 in 10.0 mi Calm Calm - N/A   Overcast
7:14 AM 22.5 °F 17.8 °F 18.5 °F 85% 29.98 in 10.0 mi East 3.5 mph - N/A   Mostly Cloudy
7:34 AM 23.0 °F - 17.2 °F 79% 29.99 in 10.0 mi Calm Calm - N/A   Scattered Clouds
7:55 AM 23.0 °F - 17.1 °F 78% 29.99 in 10.0 mi Calm Calm - N/A   Scattered Clouds
8:14 AM 23.0 °F - 16.9 °F 77% 29.99 in 10.0 mi Calm Calm - N/A   Scattered Clouds
8:34 AM 23.0 °F - 17.4 °F 79% 29.99 in 10.0 mi Calm Calm - N/A   Scattered Clouds
8:54 AM 23.4 °F - 17.6 °F 79% 29.99 in 10.0 mi Calm Calm - N/A   Scattered Clouds
9:14 AM 23.0 °F - 18.1 °F 82% 29.99 in 10.0 mi Calm Calm - N/A   Scattered Clouds
9:35 AM 24.1 °F 19.7 °F 18.5 °F 79% 29.98 in 10.0 mi East 3.5 mph - N/A   Scattered Clouds
9:54 AM 24.8 °F - 18.1 °F 76% 29.97 in 10.0 mi Calm Calm - N/A   Mostly Cloudy
10:14 AM 25.3 °F - 17.6 °F 72% 29.98 in 10.0 mi Calm Calm - N/A   Overcast
10:35 AM 25.7 °F 21.5 °F 17.6 °F 71% 29.97 in 10.0 mi ENE 3.5 mph - N/A   Overcast
10:54 AM 25.9 °F - 18.5 °F 74% 29.97 in 10.0 mi Calm Calm - N/A   Overcast
11:15 AM 26.6 °F 22.6 °F 18.7 °F 72% 29.95 in 10.0 mi NE 3.5 mph - N/A   Overcast
11:35 AM 27.1 °F 20.7 °F 19.2 °F 72% 29.93 in 10.0 mi ENE 5.8 mph - N/A   Mostly Cloudy
11:54 AM 27.9 °F 22.6 °F 19.4 °F 71% 29.92 in 10.0 mi ENE 4.6 mph - N/A   Mostly Cloudy
12:15 PM 28.6 °F 24.8 °F 19.6 °F 69% 29.92 in 10.0 mi ESE 3.5 mph - N/A   Overcast
12:34 PM 29.1 °F - 19.9 °F 69% 29.93 in 10.0 mi Calm Calm - N/A   Overcast
12:55 PM 29.8 °F 26.3 °F 20.3 °F 68% 29.93 in 10.0 mi NW 3.5 mph - N/A   Overcast
1:15 PM 29.5 °F 25.9 °F 20.7 °F 70% 29.93 in 10.0 mi North 3.5 mph - N/A   Overcast
1:34 PM 28.9 °F 21.9 °F 21.6 °F 74% 29.92 in 10.0 mi North 6.9 mph - N/A   Overcast
1:55 PM 28.9 °F 22.8 °F 21.7 °F 74% 29.91 in 10.0 mi North 5.8 mph - N/A   Mostly Cloudy
2:15 PM 28.9 °F 21.9 °F 21.4 °F 73% 29.88 in 10.0 mi NE 6.9 mph - N/A   Mostly Cloudy
2:34 PM 29.3 °F 24.3 °F 21.7 °F 73% 29.87 in 10.0 mi NE 4.6 mph - N/A   Mostly Cloudy
2:55 PM 29.5 °F 24.5 °F 21.6 °F 72% 29.89 in 10.0 mi NE 4.6 mph - N/A   Overcast
3:14 PM 29.7 °F - 22.3 °F 74% 29.89 in 10.0 mi Calm Calm - N/A   Overcast
3:34 PM 29.7 °F 22.0 °F 22.6 °F 75% 29.87 in 10.0 mi NNE 8.1 mph - N/A   Overcast
3:55 PM 29.8 °F 23.9 °F 22.8 °F 75% 29.87 in 10.0 mi NE 5.8 mph - N/A   Overcast
4:14 PM 29.8 °F 24.9 °F 23.0 °F 76% 29.88 in 10.0 mi NNE 4.6 mph - N/A   Overcast
4:35 PM 29.8 °F 24.9 °F 23.0 °F 76% 29.88 in 10.0 mi NNE 4.6 mph - N/A   Overcast
4:55 PM 29.7 °F 26.1 °F 23.0 °F 76% 29.89 in 10.0 mi NNE 3.5 mph - N/A   Overcast
5:14 PM 29.3 °F 24.3 °F 23.2 °F 78% 29.88 in 10.0 mi NE 4.6 mph - N/A   Overcast
5:35 PM 29.3 °F 24.3 °F 23.5 °F 79% 29.89 in 10.0 mi NNE 4.6 mph - N/A   Overcast
5:55 PM 29.3 °F 24.3 °F 23.5 °F 79% 29.89 in 10.0 mi NNE 4.6 mph - N/A   Overcast
6:14 PM 29.1 °F 24.1 °F 23.9 °F 81% 29.90 in 10.0 mi North 4.6 mph - N/A   Overcast
6:35 PM 29.1 °F 22.1 °F 23.9 °F 81% 29.90 in 10.0 mi NNE 6.9 mph - N/A   Overcast
6:55 PM 29.1 °F 23.0 °F 24.6 °F 83% 29.91 in 10.0 mi NNE 5.8 mph - N/A   Overcast
7:14 PM 29.3 °F 22.3 °F 25.9 °F 87% 29.92 in 10.0 mi North 6.9 mph - N/A   Overcast
7:35 PM 29.1 °F 20.0 °F 26.6 °F 90% 29.93 in 5.0 mi North 10.4 mph - N/A Snow Light Snow
7:54 PM 28.9 °F 20.4 °F 26.6 °F 91% 29.93 in 5.0 mi North 9.2 mph - N/A Snow Light Snow
8:15 PM 28.9 °F 20.4 °F 27.0 °F 92% 29.94 in 7.0 mi North 9.2 mph - N/A   Overcast
8:35 PM 28.9 °F 20.4 °F 26.6 °F 91% 29.95 in 10.0 mi NNW 9.2 mph - N/A Snow Light Snow
8:54 PM 28.8 °F 20.2 °F 26.4 °F 91% 29.95 in 10.0 mi North 9.2 mph - N/A   Overcast
9:15 PM 28.0 °F 22.8 °F 25.5 °F 90% 29.96 in 10.0 mi NNW 4.6 mph - N/A   Overcast
9:34 PM 27.5 °F 20.2 °F 25.2 °F 91% 29.97 in 7.0 mi NW 6.9 mph - N/A Snow Light Snow
9:54 PM 28.2 °F 22.0 °F 25.9 °F 91% 29.97 in 7.0 mi NW 5.8 mph - N/A Snow Light Snow
10:15 PM 28.2 °F 21.0 °F 26.1 °F 92% 29.98 in 5.0 mi NW 6.9 mph - N/A Snow Light Snow
10:34 PM 28.8 °F 22.6 °F 26.6 °F 92% 29.98 in 7.0 mi NW 5.8 mph - N/A Snow Light Snow
10:54 PM 29.3 °F 21.5 °F 27.1 °F 92% 29.98 in 5.0 mi NNW 8.1 mph - N/A Snow Light Snow
11:14 PM 28.4 °F 19.1 °F 26.2 °F 92% 29.99 in 10.0 mi NNW 10.4 mph - N/A Snow Light Snow
11:34 PM 28.0 °F 20.0 °F 25.3 °F 90% 29.99 in 10.0 mi NNW 8.1 mph - N/A Snow Light Snow
11:55 PM 28.4 °F 20.4 °F 25.3 °F 88% 29.99 in 10.0 mi NNW 8.1 mph - N/A   Overcast